Location: Mountain View
(37.3861°N, 122.0839°W)
Time: 22:23:12
(UTC-07:00)

ARIANE 6 FM1 Upper Stage - Pass Details

Date: 11 May 2026
Orbit: 528 x 599 km, 62.0° (Epoch: 8 June)

Event Time Altitude Azimuth Distance (km) Brightness Sun altitude
Rises 20:47:12 0° 311° (NW) 2,665 8.2 -7.9°
Reaches altitude 10° 20:49:43 10° 296° (WNW) 1,772 6.9 -8.3°
Maximum altitude 20:52:50 22° 244° (WSW) 1,172 4.7 -8.9°
Drops below altitude 10° 20:55:58 10° 192° (SSW) 1,773 5.0 -9.4°
Sets 20:58:30 0° 177° (S) 2,667 5.8 -9.8°
